{"data":{"norad_id":55334,"intl_designator":"2023-013D","name":"STARLINK-5652","alt_names":[],"object_type":"PAYLOAD","status":"ACTIVE","operator":null,"country":"US","launch_date":"2023-01-26","launch_site_code":"AFETR","launch_vehicle":null,"mission":null,"orbit_class":"UNKNOWN","rcs_meters":null,"size_class":null,"mass_kg":null,"dimensions":null,"purposes":["comms"],"wikipedia_slug":null,"has_3d_model":false,"image_url":null,"decayed_at":null,"tle_current":{"epoch":"2026-09-20T13:16:07.771872Z","epoch_age_seconds":92071,"freshness":"FRESH","line1":"1 55334U 23013D   26263.55286773  .00001273  00000+0  55816-4 0  9992","line2":"2 55334  43.0022 282.9636 0001725 282.2649  77.8009 15.27567937201474","mean_motion":15.27567937,"eccentricity":0.0001725,"inclination_deg":43.0022,"raan_deg":282.9636,"arg_perigee_deg":282.2649,"mean_anomaly_deg":77.8009,"bstar":5.5816e-5,"rev_number":20147,"period_min":94.267493125577,"perigee_km":481.90165640652,"apogee_km":484.26877807147,"semimajor_km":6861.222217239,"source":"CELESTRAK","updated_at":"2026-09-21T09:00:33.178221Z"}}}